Location: Proctor
(47.8934°N, 114.3048°W)
Time: 17:55:58
(UTC+00:00)

Transit 4A - Pass Details

Date: 12 May 2025
Orbit: 866 x 975 km, 66.8° (Epoch: 13 June)

Event Time Altitude Azimuth Distance (km) Brightness Sun altitude
Rises 10:29:27 0° 325° (NW) 3,618 11.1 -13.1°
Reaches altitude 10° 10:32:32 10° 338° (NNW) 2,652 10.6 -12.7°
Maximum altitude 10:37:31 25° 33° (NNE) 1,768 10.4 -12.1°
Drops below altitude 10° 10:42:23 10° 87° (E) 2,581 11.0 -11.5°
Sets 10:45:20 0° 101° (E) 3,501 11.4 -11.2°
